• In Romania
  • List of Countries
  • For 7 days
  • Water Temperature
  • Satellite Maps
  • Weather Map
  • Weather Widgets
  • user-avatar
    Login

    Hourly Weather La Rioja

    Today, 20 August, Sunday

    Time Temperature Precipitation Wind Pressure Humidity
    00:00 +17°C° 0 mm 2 mps 718 mmHg 56%
    01:00 +16°C° 0 mm 2 mps 719 mmHg 58%
    02:00 +15°C° 0 mm 2 mps 719 mmHg 60%
    03:00 +15°C° 0 mm 2 mps 720 mmHg 63%
    04:00 +14°C° 0 mm 1 mps 720 mmHg 65%
    05:00 +14°C° 0 mm 1 mps 720 mmHg 67%
    06:00 +14°C° 0 mm 2 mps 721 mmHg 66%
    07:00 +14°C° 0 mm 2 mps 722 mmHg 65%
    08:00 +15°C° 0 mm 2 mps 723 mmHg 64%
    09:00 +16°C° 0 mm 2 mps 723 mmHg 58%
    10:00 +17°C° 0 mm 3 mps 723 mmHg 52%
    11:00 +19°C° 0 mm 3 mps 724 mmHg 46%
    12:00 +20°C° 0 mm 3 mps 723 mmHg 42%
    13:00 +21°C° 0 mm 3 mps 722 mmHg 39%
    14:00 +22°C° 0 mm 4 mps 721 mmHg 35%
    15:00 +22°C° 0 mm 4 mps 721 mmHg 34%
    16:00 +22°C° 0 mm 4 mps 720 mmHg 34%
    17:00 +22°C° 0 mm 4 mps 720 mmHg 33%
    18:00 +21°C° 0 mm 4 mps 720 mmHg 35%
    19:00 +19°C° 0 mm 4 mps 721 mmHg 37%
    20:00 +18°C° 0 mm 3 mps 721 mmHg 38%
    21:00 +17°C° 0 mm 3 mps 721 mmHg 39%
    22:00 +16°C° 0 mm 3 mps 721 mmHg 40%
    23:00 +16°C° 0 mm 2 mps 721 mmHg 40%

    Tomorrow, 21 August, Monday

    Time Temperature Precipitation Wind Pressure Humidity
    00:00 +15°C° 0 mm 2 mps 720 mmHg 41%
    01:00 +15°C° 0 mm 2 mps 720 mmHg 41%
    02:00 +14°C° 0 mm 2 mps 720 mmHg 41%
    03:00 +14°C° 0 mm 2 mps 719 mmHg 42%
    04:00 +13°C° 0 mm 2 mps 719 mmHg 43%
    05:00 +13°C° 0 mm 2 mps 719 mmHg 43%
    06:00 +13°C° 0 mm 2 mps 719 mmHg 42%
    07:00 +14°C° 0 mm 2 mps 719 mmHg 41%
    08:00 +14°C° 0 mm 2 mps 720 mmHg 40%
    09:00 +16°C° 0 mm 2 mps 720 mmHg 36%
    10:00 +18°C° 0 mm 2 mps 720 mmHg 32%
    11:00 +20°C° 0 mm 2 mps 720 mmHg 28%
    12:00 +21°C° 0 mm 2 mps 719 mmHg 26%
    13:00 +23°C° 0 mm 2 mps 718 mmHg 24%
    14:00 +24°C° 0 mm 2 mps 717 mmHg 22%
    15:00 +25°C° 0 mm 2 mps 716 mmHg 22%
    16:00 +25°C° 0 mm 2 mps 715 mmHg 21%
    17:00 +25°C° 0 mm 3 mps 715 mmHg 21%
    18:00 +24°C° 0 mm 3 mps 715 mmHg 24%
    19:00 +21°C° 0 mm 2 mps 714 mmHg 27%
    20:00 +19°C° 0 mm 2 mps 714 mmHg 29%
    21:00 +19°C° 0 mm 2 mps 714 mmHg 30%
    22:00 +18°C° 0 mm 2 mps 714 mmHg 31%
    23:00 +18°C° 0 mm 2 mps 713 mmHg 32%

    Day after tomorrow, 22 August, Tuesday

    Time Temperature Precipitation Wind Pressure Humidity
    00:00 +17°C° 0 mm 2 mps 713 mmHg 33%
    01:00 +17°C° 0 mm 2 mps 712 mmHg 34%
    02:00 +16°C° 0 mm 2 mps 711 mmHg 35%
    03:00 +16°C° 0 mm 2 mps 710 mmHg 35%
    04:00 +15°C° 0 mm 2 mps 709 mmHg 35%
    05:00 +15°C° 0 mm 2 mps 708 mmHg 36%
    06:00 +16°C° 0 mm 2 mps 708 mmHg 33%
    07:00 +17°C° 0 mm 2 mps 708 mmHg 30%
    08:00 +17°C° 0 mm 2 mps 708 mmHg 28%
    09:00 +20°C° 0 mm 2 mps 708 mmHg 24%
    10:00 +22°C° 0 mm 3 mps 707 mmHg 21%
    11:00 +25°C° 0 mm 3 mps 707 mmHg 18%
    12:00 +26°C° 0 mm 3 mps 706 mmHg 16%
    13:00 +28°C° 0 mm 3 mps 705 mmHg 15%
    14:00 +29°C° 0 mm 3 mps 704 mmHg 13%
    15:00 +29°C° 0 mm 2 mps 703 mmHg 13%
    16:00 +29°C° 0 mm 2 mps 703 mmHg 13%
    17:00 +29°C° 0 mm 2 mps 703 mmHg 13%
    18:00 +27°C° 0 mm 2 mps 703 mmHg 16%
    19:00 +25°C° 0 mm 2 mps 704 mmHg 18%
    20:00 +23°C° 0 mm 2 mps 704 mmHg 20%
    21:00 +21°C° 0 mm 2 mps 705 mmHg 21%
    22:00 +21°C° 0 mm 2 mps 705 mmHg 22%
    23:00 +20°C° 0 mm 3 mps 705 mmHg 23%

    23 August, Wednesday

    Time Temperature Precipitation Wind Pressure Humidity
    00:00 +19°C° 0 mm 3 mps 705 mmHg 24%
    01:00 +19°C° 0 mm 3 mps 705 mmHg 26%
    02:00 +18°C° 0 mm 3 mps 705 mmHg 27%
    03:00 +18°C° 0 mm 3 mps 706 mmHg 28%
    04:00 +17°C° 0 mm 3 mps 706 mmHg 29%
    05:00 +17°C° 0 mm 3 mps 706 mmHg 30%
    06:00 +17°C° 0 mm 3 mps 707 mmHg 29%
    07:00 +18°C° 0 mm 3 mps 708 mmHg 28%
    08:00 +19°C° 0 mm 3 mps 709 mmHg 27%
    09:00 +21°C° 0 mm 4 mps 710 mmHg 24%
    10:00 +23°C° 0 mm 5 mps 711 mmHg 21%
    11:00 +26°C° 0 mm 6 mps 711 mmHg 17%
    12:00 +26°C° 0 mm 5 mps 711 mmHg 17%
    13:00 +26°C° 0 mm 5 mps 710 mmHg 17%
    14:00 +27°C° 0 mm 5 mps 709 mmHg 17%
    15:00 +27°C° 0 mm 4 mps 709 mmHg 18%
    16:00 +26°C° 0 mm 4 mps 709 mmHg 20%
    17:00 +26°C° 0 mm 3 mps 709 mmHg 22%
    18:00 +24°C° 0 mm 3 mps 709 mmHg 26%
    19:00 +23°C° 0 mm 2 mps 709 mmHg 30%
    20:00 +20°C° 0 mm 2 mps 710 mmHg 35%
    21:00 +19°C° 0 mm 2 mps 710 mmHg 37%
    22:00 +19°C° 0 mm 2 mps 710 mmHg 39%
    23:00 +18°C° 0 mm 2 mps 710 mmHg 42%

    24 August, Thursday

    Time Temperature Precipitation Wind Pressure Humidity
    00:00 +17°C° 0 mm 2 mps 709 mmHg 43%
    01:00 +17°C° 0 mm 2 mps 709 mmHg 44%
    02:00 +16°C° 0 mm 2 mps 709 mmHg 45%
    03:00 +16°C° 0 mm 2 mps 708 mmHg 46%
    04:00 +16°C° 0 mm 2 mps 708 mmHg 46%
    05:00 +16°C° 0 mm 2 mps 708 mmHg 47%
    06:00 +16°C° 0 mm 2 mps 709 mmHg 45%
    07:00 +17°C° 0 mm 2 mps 709 mmHg 43%
    08:00 +18°C° 0 mm 2 mps 709 mmHg 42%
    09:00 +20°C° 0 mm 2 mps 709 mmHg 39%
    10:00 +23°C° 0 mm 2 mps 710 mmHg 36%
    11:00 +25°C° 0 mm 2 mps 710 mmHg 33%
    12:00 +26°C° 0 mm 2 mps 709 mmHg 31%
    13:00 +27°C° 0 mm 2 mps 708 mmHg 28%
    14:00 +28°C° 0 mm 3 mps 708 mmHg 26%
    15:00 +29°C° 0 mm 3 mps 708 mmHg 25%
    16:00 +29°C° 0 mm 3 mps 708 mmHg 24%
    17:00 +29°C° 0 mm 3 mps 708 mmHg 24%
    18:00 +27°C° 0 mm 3 mps 708 mmHg 27%
    19:00 +25°C° 0 mm 3 mps 708 mmHg 29%
    20:00 +23°C° 0 mm 2 mps 709 mmHg 32%
    21:00 +23°C° 0 mm 2 mps 709 mmHg 34%
    22:00 +23°C° 0 mm 2 mps 709 mmHg 35%
    23:00 +21°C° 0 mm 2 mps 709 mmHg 37%

    25 August, Friday

    Time Temperature Precipitation Wind Pressure Humidity
    00:00 +21°C° 0 mm 2 mps 709 mmHg 36%
    01:00 +20°C° 0 mm 2 mps 709 mmHg 35%
    02:00 +20°C° 0 mm 2 mps 709 mmHg 34%
    03:00 +19°C° 0 mm 2 mps 709 mmHg 35%
    04:00 +19°C° 0 mm 2 mps 709 mmHg 36%
    05:00 +19°C° 0 mm 1 mps 709 mmHg 37%
    06:00 +19°C° 0 mm 2 mps 710 mmHg 35%
    07:00 +19°C° 0 mm 3 mps 710 mmHg 34%
    08:00 +20°C° 0 mm 4 mps 711 mmHg 32%
    09:00 +21°C° 0 mm 5 mps 711 mmHg 29%
    10:00 +22°C° 0 mm 5 mps 712 mmHg 26%
    11:00 +24°C° 0 mm 6 mps 712 mmHg 24%
    12:00 +24°C° 0 mm 6 mps 711 mmHg 24%
    13:00 +26°C° 0 mm 7 mps 711 mmHg 24%
    14:00 +27°C° 0 mm 7 mps 710 mmHg 24%
    15:00 +26°C° 0 mm 7 mps 711 mmHg 26%
    16:00 +24°C° 0 mm 7 mps 711 mmHg 27%
    17:00 +24°C° 0 mm 7 mps 712 mmHg 28%
    18:00 +22°C° 0 mm 6 mps 713 mmHg 34%
    19:00 +20°C° 0 mm 6 mps 714 mmHg 39%
    20:00 +17°C° 0 mm 5 mps 715 mmHg 45%
    21:00 +16°C° 0 mm 5 mps 715 mmHg 46%
    22:00 +17°C° 0 mm 4 mps 716 mmHg 48%
    23:00 +15°C° 0 mm 4 mps 716 mmHg 50%
    Show more